Flag for New Zealand Weather past 2 weeks in Wellington, New Zealand

Now
55 °F

Overcast.


Feels Like: 53 °F
Forecast: 50 / 57 °F
Wind: 8 mph from North

Location: Wellington Airport

Current Time: Oct 20, 2014 at 9:22:13 PM

Latest Report: Oct 20, 2014 at 9:00 PM


Visibility: N/A

Pressure: 29.92 "Hg

Humidity: 72%

Dew point: 46 °F

Location of WellingtonLocation

Historic Weather in Wellington — Graph

°F

Wellington temperature yesterday

Maximum temperature yesterday: 57 °F (at 1:00 PM)
Minimum temperature yesterday: 50 °F (at 11:30 PM)
Average temperature yesterday: 54 °F

Past Weeks' High & Low Weather Summary

 TemperatureHumidityPressure
High68 °F (Oct 15, 3:30 PM)94% (Oct 6, 6:30 AM)30.33 "Hg (Oct 6, 6:30 AM)
Low41 °F (Oct 7, 6:30 AM)39% (Oct 7, 3:30 PM)29.30 "Hg (Oct 6, 10:00 AM)
Average56 °F77%29.98 "Hg
* Reported Oct 5 8:00 PM — Oct 20 8:00 PM, Wellington, Weather by CustomWeather, © 2014

Note: Actual official high and low records may vary slightly from our data, if they occured in-between our weather recording intervals... More about our weather records

Advertising

Wellington weather history for previous 24 hours

 ConditionsComfort  
Time TempWeatherWind HumidityBarometerVisibility
8:00 PM
Oct 20
55 °FPassing clouds.18 mph72%29.86 "HgN/A
7:30 PM57 °FScattered clouds.17 mph67%29.83 "HgN/A
7:00 PM57 °FCool.18 mph67%29.83 "HgN/A
6:30 PM57 °FCool.20 mph67%29.80 "HgN/A
6:00 PM57 °FPassing clouds.23 mph67%29.77 "HgN/A
4:00 PM59 °FPassing clouds.25 mph63%29.80 "HgN/A
3:30 PM59 °FPassing clouds.25 mph63%29.80 "HgN/A
3:00 PM61 °FScattered clouds.29 mph59%29.80 "HgN/A
2:30 PM61 °FPassing clouds.29 mph59%29.80 "HgN/A
2:00 PM59 °FPassing clouds.29 mph63%29.83 "HgN/A
1:30 PM59 °FPartly sunny.30 mph63%29.80 "HgN/A
1:00 PM61 °FPassing clouds.29 mph63%29.83 "HgN/A
12:30 PM59 °FPassing clouds.26 mph63%29.83 "HgN/A
12:00 PM59 °FCool.26 mph63%29.83 "HgN/A
11:30 AM59 °FCool.25 mph68%29.86 "HgN/A
11:00 AM59 °FPassing clouds.25 mph68%29.86 "HgN/A
10:30 AM59 °FPassing clouds.23 mph68%29.86 "HgN/A
10:00 AM59 °FCool.21 mph68%29.86 "HgN/A
9:30 AM57 °FCool.21 mph67%29.89 "HgN/A
9:00 AM57 °FPassing clouds.18 mph72%29.89 "HgN/A
8:30 AM55 °FScattered clouds.15 mph77%29.89 "HgN/A
8:00 AM55 °FPartly sunny.13 mph82%29.89 "HgN/A
7:30 AM54 °FPassing clouds.16 mph88%29.89 "HgN/A
7:00 AM54 °FPassing clouds.18 mph88%29.92 "HgN/A
6:30 AM52 °FPassing clouds.17 mph88%29.89 "HgN/A
6:00 AM52 °FPassing clouds.14 mph88%29.92 "HgN/A
5:30 AM52 °FMostly cloudy.10 mph88%29.92 "HgN/A
5:00 AM50 °FPassing clouds.9 mph94%29.95 "HgN/A
4:30 AM50 °FPassing clouds.10 mph94%29.95 "HgN/A
4:00 AM50 °FPassing clouds.9 mph94%29.95 "HgN/A
3:30 AM50 °FPassing clouds.10 mph94%29.98 "HgN/A
3:00 AM48 °FCool.9 mph94%30.01 "HgN/A
2:30 AM48 °FCool.5 mph94%30.01 "HgN/A
2:00 AM48 °FCool.2 mph94%30.04 "HgN/A
1:30 AM48 °FCool.3 mph94%30.04 "HgN/A
1:00 AM48 °FCool.2 mph94%30.04 "HgN/A
12:30 AM48 °FCool.5 mph87%30.04 "HgN/A
12:00 AM48 °FCool.5 mph87%30.04 "HgN/A
11:30 PM
Oct 19
50 °FCool.2 mph88%30.07 "HgN/A
11:00 PM52 °FCool.2 mph82%30.07 "HgN/A
10:30 PM52 °FCool.3 mph88%30.07 "HgN/A
10:00 PM54 °FCool.6 mph88%30.07 "HgN/A
9:30 PM54 °FCool.6 mph82%30.07 "HgN/A
9:00 PM55 °FCool.6 mph82%30.09 "HgN/A
Weather by CustomWeather, © 2014

See weather overviewHow to use our weather pages